#timestamp,LO_Frequency,Hit,Temp,Hum 
1488038415.5,286047018.9,N,0.0,0.0
1488038435.4,286047020.1,N,0.0,0.0
1488038455.2,286047016.3,N,0.0,0.0
1488038475.0,286047014.1,N,0.0,0.0
1488038475.9,286047014.1,N,0.0,0.0
1488038495.8,286047015.3,N,0.0,0.0
1488038515.6,286047014.8,N,0.0,0.0
1488038535.4,286047015.0,N,0.0,0.0
1488038555.3,286047013.9,N,0.0,0.0
1488038575.1,286047013.1,N,0.0,0.0
1488038576.0,286047013.1,N,0.0,0.0
1488038595.8,286047013.2,N,0.0,0.0
1488038615.7,286047014.9,N,0.0,0.0
1488038635.5,286047015.5,N,0.0,0.0
1488038655.3,286047017.1,N,0.0,0.0
1488038675.2,286047015.7,N,0.0,0.0
1488038695.9,286047011.2,N,0.0,0.0
1488038715.7,286047014.1,N,0.0,0.0
1488038735.6,286047014.1,N,0.0,0.0
1488038755.4,286047014.1,N,0.0,0.0
1488038775.2,286047012.7,N,0.0,0.0
1488038795.0,286047015.0,N,0.0,0.0
1488038796.0,286047015.0,N,0.0,0.0
1488038815.8,286047010.1,N,0.0,0.0
1488038835.6,286047008.4,N,0.0,0.0
1488038855.4,286047007.1,N,0.0,0.0
1488038875.3,286047000.3,N,0.0,0.0
1488038895.1,286047007.1,N,0.0,0.0
1488038915.8,286046998.5,N,0.0,0.0
1488038935.7,286047001.2,N,0.0,0.0
1488038955.5,286047003.4,N,0.0,0.0
1488038975.3,286047004.3,N,0.0,0.0
1488038995.2,286047004.6,N,0.0,0.0
1488039015.9,286047003.2,N,0.0,0.0
1488039035.7,286047001.9,N,0.0,0.0
1488039055.6,286046999.7,N,0.0,0.0
1488039075.4,286046996.5,N,0.0,0.0
1488039095.2,286046997.9,N,0.0,0.0
1488039115.1,286046994.9,N,0.0,0.0
1488039116.0,286046994.9,N,0.0,0.0
1488039135.8,286046997.2,N,0.0,0.0
1488039155.6,286046999.6,N,0.0,0.0
1488039175.5,286046999.0,N,0.0,0.0
1488039195.3,286046998.7,N,0.0,0.0
1488039215.1,286046998.1,N,0.0,0.0
1488039235.9,286047000.7,N,0.0,0.0
1488039255.7,286046998.4,N,0.0,0.0
1488039275.5,286046999.2,N,0.0,0.0
1488039295.4,286046995.5,N,0.0,0.0
1488039315.2,286046994.8,N,0.0,0.0
1488039335.0,286046994.0,N,0.0,0.0
1488039335.9,286046994.0,N,0.0,0.0
1488039355.8,286046991.4,N,0.0,0.0
1488039375.6,286046989.1,N,0.0,0.0
1488039395.4,286046988.8,N,0.0,0.0
1488039415.2,286046991.3,N,0.0,0.0
1488039435.1,286046990.8,N,0.0,0.0
1488039436.0,286046990.8,N,0.0,0.0
1488039455.8,286046988.9,N,0.0,0.0
1488039475.6,286046991.3,N,0.0,0.0
1488039495.5,286046988.9,N,0.0,0.0
1488039515.3,286046986.9,N,0.0,0.0
1488039535.1,286046989.3,N,0.0,0.0
1488039555.9,286046989.3,N,0.0,0.0
1488039575.7,286046991.2,N,0.0,0.0
1488039595.5,286046987.3,N,0.0,0.0
1488039615.4,286046984.0,N,0.0,0.0
1488039635.2,286046981.1,N,0.0,0.0
1488039655.0,286046981.7,N,0.0,0.0
1488039655.9,286046981.7,N,0.0,0.0
1488039675.8,286046978.9,N,0.0,0.0
1488039695.6,286046979.9,N,0.0,0.0
1488039715.4,286046980.4,N,0.0,0.0
1488039735.3,286046977.6,N,0.0,0.0
1488039755.1,286046978.0,N,0.0,0.0
1488039756.0,286046978.0,N,0.0,0.0
1488039775.8,286046979.1,N,0.0,0.0
1488039795.7,286046982.0,N,0.0,0.0
1488039815.5,286046982.0,N,0.0,0.0
1488039835.3,286046983.0,N,0.0,0.0
1488039855.2,286046985.2,N,0.0,0.0
1488039875.9,286046987.9,N,0.0,0.0
1488039895.7,286046987.0,N,0.0,0.0
1488039915.6,286046990.0,N,0.0,0.0
1488039935.4,286046987.0,N,0.0,0.0
1488039955.2,286046990.7,N,0.0,0.0
1488039975.1,286046989.5,N,0.0,0.0
1488039976.0,286046989.5,N,0.0,0.0
1488039995.8,286046987.9,N,0.0,0.0
1488040015.6,286046985.0,N,0.0,0.0
1488040035.5,286046986.0,N,0.0,0.0
1488040055.3,286046985.7,N,0.0,0.0
1488040075.1,286046985.6,N,0.0,0.0
1488040095.8,286046986.8,N,0.0,0.0
1488040115.7,286046985.9,N,0.0,0.0
1488040135.5,286046985.6,N,0.0,0.0
1488040155.3,286046987.3,N,0.0,0.0
1488040175.2,286046989.8,N,0.0,0.0
1488040195.0,286046990.9,N,0.0,0.0
1488040195.9,286046990.9,N,0.0,0.0
1488040215.7,286046994.3,N,0.0,0.0
1488040235.6,286046991.7,N,0.0,0.0
1488040255.4,286046993.8,N,0.0,0.0
1488040275.2,286046995.0,N,0.0,0.0
1488040295.1,286046993.3,N,0.0,0.0
1488040296.0,286046993.3,N,0.0,0.0
1488040315.8,286046992.1,N,0.0,0.0
1488040335.6,286046991.0,N,0.0,0.0
1488040355.5,286046991.3,N,0.0,0.0
1488040375.3,286046991.9,N,0.0,0.0
1488040395.1,286046991.0,N,0.0,0.0
1488040415.9,286046992.7,N,0.0,0.0
1488040435.7,286046994.6,N,0.0,0.0
1488040455.5,286046994.7,N,0.0,0.0
1488040475.4,286046990.6,N,0.0,0.0
1488040495.2,286046991.3,N,0.0,0.0
1488040515.0,286046993.9,N,0.0,0.0
1488040515.9,286046993.9,N,0.0,0.0
1488040535.8,286046995.6,N,0.0,0.0
1488040555.6,286046995.3,N,0.0,0.0
1488040575.4,286046997.8,N,0.0,0.0
1488040595.3,286046995.3,N,0.0,0.0
1488040615.1,286046995.7,N,0.0,0.0
1488040616.0,286046995.7,N,0.0,0.0
1488040635.8,286046993.9,N,0.0,0.0
1488040655.7,286046992.2,N,0.0,0.0
1488040675.5,286046992.7,N,0.0,0.0
1488040695.3,286046994.0,N,0.0,0.0
1488040715.2,286046989.1,N,0.0,0.0
1488040735.9,286046990.7,N,0.0,0.0
1488040755.7,286046993.9,N,0.0,0.0
1488040775.6,286046998.8,N,0.0,0.0
1488040795.4,286046997.6,N,0.0,0.0
1488040815.2,286046997.8,N,0.0,0.0
1488040835.0,286046999.2,N,0.0,0.0
1488040836.0,286046999.2,N,0.0,0.0
1488040855.8,286047001.5,N,0.0,0.0
1488040875.6,286047000.0,N,0.0,0.0
1488040895.5,286047002.6,N,0.0,0.0
1488040915.3,286047001.6,N,0.0,0.0
1488040935.1,286047003.5,N,0.0,0.0
1488040955.8,286047007.5,N,0.0,0.0
1488040975.7,286047009.2,N,0.0,0.0
1488040995.5,286047006.7,N,0.0,0.0
1488041015.3,286047006.3,N,0.0,0.0
1488041035.2,286047007.8,N,0.0,0.0
1488041055.0,286047009.8,N,0.0,0.0
1488041055.9,286047009.8,N,0.0,0.0
1488041075.7,286047013.6,N,0.0,0.0
1488041095.6,286047010.9,N,0.0,0.0
1488041115.4,286047012.7,N,0.0,0.0
1488041135.2,286047016.9,N,0.0,0.0
1488041155.1,286047016.7,N,0.0,0.0
1488041156.0,286047016.7,N,0.0,0.0
1488041175.8,286047014.3,N,0.0,0.0
1488041195.6,286047018.8,N,0.0,0.0
1488041215.5,286047015.8,N,0.0,0.0
1488041235.3,286047016.9,N,0.0,0.0
1488041255.1,286047016.1,N,0.0,0.0
1488041275.9,286047018.8,N,0.0,0.0
1488041295.7,286047016.1,N,0.0,0.0
1488041315.5,286047016.3,N,0.0,0.0
1488041335.4,286047021.2,N,0.0,0.0
1488041355.2,286047021.2,N,0.0,0.0
1488041375.0,286047023.6,N,0.0,0.0
1488041375.9,286047023.6,N,0.0,0.0
1488041395.8,286047025.9,N,0.0,0.0
1488041415.6,286047024.6,N,0.0,0.0
1488041435.4,286047022.8,N,0.0,0.0
1488041455.3,286047024.1,N,0.0,0.0
1488041475.1,286047023.9,N,0.0,0.0
1488041476.0,286047023.9,N,0.0,0.0
1488041495.8,286047025.1,N,0.0,0.0
1488041515.7,286047023.5,N,0.0,0.0
1488041535.5,286047024.3,N,0.0,0.0
1488041555.3,286047024.3,N,0.0,0.0
1488041575.2,286047028.4,N,0.0,0.0
1488041595.9,286047027.5,N,0.0,0.0
1488041615.7,286047027.2,N,0.0,0.0
1488041635.6,286047029.3,N,0.0,0.0
1488041655.4,286047029.1,N,0.0,0.0
1488041675.2,286047029.9,N,0.0,0.0
1488041695.0,286047030.1,N,0.0,0.0
1488041696.0,286047030.1,N,0.0,0.0
1488041715.8,286047028.6,N,0.0,0.0
1488041735.6,286047029.7,N,0.0,0.0
1488041755.4,286047030.7,N,0.0,0.0
1488041775.3,286047028.5,N,0.0,0.0
1488041795.1,286047030.8,N,0.0,0.0
1488041815.8,286047032.5,N,0.0,0.0
1488041835.7,286047032.8,N,0.0,0.0
1488041855.5,286047030.9,N,0.0,0.0
1488041875.3,286047033.8,N,0.0,0.0
1488041895.2,286047032.5,N,0.0,0.0
1488041915.9,286047037.5,N,0.0,0.0
1488041935.7,286047034.9,N,0.0,0.0
1488041955.6,286047030.4,N,0.0,0.0
1488041975.4,286047036.0,N,0.0,0.0
1488041995.2,286047032.4,N,0.0,0.0
